Regional Weather Roundup
Issued by NWS

Home | Current Version | Previous Version | Text Only | Print | Product List | Glossary On
Versions: 1 2 3 4 5 6 7 8 9 10 11 12 13 14 15 16 17 18 19 20 21 22 23 24 25 26 27 28 29 30 31 32 33 34 35 36 37 38 39 40 41 42 43 44 45 46 47 48 49 50
000
ASUS46 KPQR 261410
RWROR

OREGON REGIONAL WEATHER ROUNDUP
NATIONAL WEATHER SERVICE PORTLAND OR
600 AM PST WED NOV 26 2014

NOTE: "FAIR" INDICATES FEW OR NO CLOUDS BELOW 12,000 FEET WITH
NO SIGNIFICANT WEATHER AND/OR OBSTRUCTIONS TO VISIBILITY.

ORZ001>013-261500-
NORTHWEST OREGON


CITY           SKY/WX    TMP DP  RH WIND       PRES   REMARKS
ASTORIA        CLOUDY    55  53  93 S7        30.16F
NEWPORT        FOG       52  52 100 CALM      30.22F VSB 1/2
PORTLAND       CLOUDY    55  52  89 E5        30.21F
VANCOUVER WA   CLOUDY    56  51  84 SE5       30.20F
SCAPPOOSE      CLOUDY    53  51  93 CALM      30.20F
HILLSBORO      CLOUDY    52  52 100 CALM      30.20F
AURORA         CLOUDY    55  50  83 CALM      30.22F
MCMINNVILLE    FOG       49  48  97 CALM      30.21F VSB 1/4
SALEM          CLOUDY    55  50  83 S8        30.21F
CORVALLIS      MOCLDY    45  39  81 CALM      30.22F VSB 1/2
EUGENE         PTCLDY    44  42  93 SW7       30.23F
$$

ORZ021-028-261500-
SOUTHWEST OREGON


CITY           SKY/WX    TMP DP  RH WIND       PRES   REMARKS
NORTH BEND     MOCLDY    50 N/A N/A CALM      30.22F
BROOKINGS      CLEAR     47  47 100 E5        30.24F
ROSEBURG       CLOUDY    47  45  93 CALM      30.26F FOG
SEXTON SUMMIT  PTCLDY    45  43  93 S16       30.27F
MEDFORD        CLOUDY    45  44  97 N6        30.32S FOG
$$

ORZ014>016-041-261500-
COLUMBIA GORGE


CITY           SKY/WX    TMP DP  RH WIND       PRES   REMARKS
TROUTDALE      CLOUDY    54  51  90 SE3       30.21F
THE DALLES     CLOUDY    54  45  71 E6        30.19F
$$

ORZ029>031-041-044-049-050-061>064-502-503-505>511-261500-
EASTERN OREGON


CITY           SKY/WX    TMP DP  RH WIND       PRES   REMARKS
REDMOND        PTCLDY    31  31 100 CALM      30.26F
BEND           PTCLDY    36  32  87 CALM      30.28S
PRINEVILLE     PTCLDY    30  30 100 CALM      30.28F
KLAMATH FALLS  FOG       25  24  96 CALM      30.35F VSB 1/4
LAKEVIEW       PTCLDY    27  23  86 N5        30.39F WCI  21
HERMISTON      CLOUDY    56  42  59 SW12      30.17F
PENDLETON      CLOUDY    54  40  59 SW14      30.20F
JOHN DAY       CLOUDY    41  36  83 E10       30.29F
MEACHAM        CLOUDY    42  38  85 CALM      30.24S
LA GRANDE      MOCLDY    46  34  61 CALM      30.24F
BAKER CITY     PTCLDY    30  29  96 VRB5      30.27F WCI  25
BURNS          MOCLDY    27  25  92 W3        30.35S
ROME             N/A     42  31  64 SE9       30.34S
ONTARIO        MOCLDY    37  35  92 NE5       30.33R WCI  33
$$



USA.gov is the U.S. government's official web portal to all federal, state and local government web resources and services.